Martha's Vineyard, MA

3:26 AM EDT on October 19, 2017 (GMT -0400)
Martha's Vineyard

Weather History for KMVY - July, 2013

Change the Weather History Date:

Sunday, July 7, 2013

  Actual Average Record
Temperature  
Mean Temperature 78 °F -  
Max Temperature 87 °F 76 °F 91 °F (1952)
Min Temperature 70 °F 58 °F 44 °F (1998)
Cooling Degree Days 13    
Growing Degree Days 28 (Base 50)    
Moisture  
Dew Point 72 °F    
Average Humidity 83    
Maximum Humidity 97    
Minimum Humidity 65    
Precipitation  
Precipitation 0.00 in - - ()
Sea Level Pressure  
Sea Level Pressure 29.99 in    
Wind  
Wind Speed 6 mph (SW)    
Max Wind Speed 15 mph    
Max Gust Speed 22 mph    
Visibility 9 miles    
Events      
Averages and records for this station are not official NWS values.
T = Trace of Precipitation, MM = Missing Value Source: NWS Daily Summary

Daily Weather History Graph

Daily Weather History Graph

Search for Another Location

Airport or City:

Trip Planner

Search our weather history database for the weather conditions in past years. The results will help you decide how hot, cold, wet, or windy it might be!

Date:

Astronomy

Jul. 07, 2013 Rise Set
Actual Time 5:16 AM EDT 8:18 PM EDT
Civil Twilight 4:42 AM EDT 8:51 PM EDT
Nautical Twilight 4:00 AM EDT 9:34 PM EDT
Astronomical Twilight 3:10 AM EDT 10:23 PM EDT
Moon 4:50 AM EDT (7/7) 7:39 PM EDT (7/7)
Length of Visible Light 16h 08m
Length of Day
15h 01m
Waning Crescent, 0% of the Moon is Illuminated
Jul 7
Waning Crescent
Jul 8
New
Jul 15
First Quarter
Jul 22
Full
Jul 29
Last Quarter

Hourly Weather History & Observations

Time (EDT) Temp. Heat Index Dew Point Humidity Pressure Visibility Wind Dir Wind Speed Gust Speed Precip Events Conditions
12:53 AM 77.0 °F - 71.1 °F 82% 30.02 in 10.0 mi West 6.9 mph - N/A   Clear
1:53 AM 75.0 °F - 71.1 °F 87% 30.03 in 10.0 mi WNW 3.5 mph - N/A   Clear
2:53 AM 73.0 °F - 70.0 °F 90% 30.02 in 10.0 mi Calm Calm - N/A   Clear
3:53 AM 71.1 °F - 69.1 °F 93% 30.02 in 7.0 mi Calm Calm - N/A   Clear
4:53 AM 70.0 °F - 68.0 °F 93% 30.02 in 6.0 mi Calm Calm - N/A   Clear
5:53 AM 70.0 °F - 68.0 °F 93% 30.02 in 10.0 mi Calm Calm - N/A   Clear
6:53 AM 73.9 °F - 72.0 °F 93% 30.03 in 7.0 mi Calm Calm - N/A   Clear
7:53 AM 81.0 °F 85.8 °F 73.0 °F 77% 30.03 in 10.0 mi WSW 4.6 mph - N/A   Clear
8:53 AM 84.9 °F 90.7 °F 72.0 °F 65% 30.03 in 10.0 mi SW 4.6 mph - N/A   Clear
9:53 AM 82.9 °F 88.8 °F 73.0 °F 72% 30.02 in 10.0 mi SSW 8.1 mph - N/A   Clear
10:53 AM 84.9 °F 92.1 °F 73.9 °F 69% 30.02 in 10.0 mi SSW 8.1 mph - N/A   Clear
11:53 AM 86.0 °F 95.1 °F 75.0 °F 70% 30.01 in 10.0 mi SSW 9.2 mph - N/A   Clear
12:53 PM 86.0 °F 95.1 °F 75.0 °F 70% 30.01 in 10.0 mi South 9.2 mph - N/A   Clear
1:53 PM 86.0 °F 95.1 °F 75.0 °F 70% 30.00 in 10.0 mi SW 11.5 mph - N/A   Clear
2:53 PM 84.0 °F 90.2 °F 73.0 °F 69% 29.98 in 10.0 mi SSW 11.5 mph - N/A   Clear
3:53 PM 84.0 °F 89.6 °F 72.0 °F 67% 29.97 in 10.0 mi SW 11.5 mph - N/A   Clear
4:53 PM 84.0 °F 89.0 °F 71.1 °F 65% 29.97 in 10.0 mi SW 11.5 mph - N/A   Clear
5:53 PM 80.1 °F 83.8 °F 72.0 °F 76% 29.96 in 10.0 mi SW 10.4 mph - N/A   Clear
6:53 PM 77.0 °F - 72.0 °F 84% 29.95 in 10.0 mi SW 8.1 mph - N/A   Clear
7:53 PM 73.9 °F - 71.1 °F 91% 29.94 in 6.0 mi SW 15.0 mph 21.9 mph N/A   Clear
8:01 PM 73.4 °F - 71.6 °F 94% 29.94 in 5.0 mi SW 12.7 mph 21.9 mph N/A   Mostly Cloudy
8:53 PM 73.0 °F - 71.1 °F 93% 29.96 in 6.0 mi SW 9.2 mph - N/A   Mostly Cloudy
9:30 PM 73.4 °F - 71.6 °F 94% 29.97 in 7.0 mi SW 8.1 mph - N/A   Scattered Clouds
9:53 PM 73.9 °F - 72.0 °F 93% 29.98 in 7.0 mi SW 5.8 mph - N/A   Partly Cloudy
10:30 PM 73.4 °F - 71.6 °F 94% 29.98 in 8.0 mi SW 6.9 mph - N/A   Mostly Cloudy
10:40 PM 73.4 °F - 71.6 °F 94% 29.98 in 8.0 mi WSW 6.9 mph - N/A   Scattered Clouds
10:53 PM 73.9 °F - 72.0 °F 93% 29.98 in 9.0 mi SW 8.1 mph - N/A   Partly Cloudy
11:53 PM 72.0 °F - 71.1 °F 97% 29.97 in 6.0 mi SW 5.8 mph - N/A   Clear